Regional Weather Roundup
Issued by NWS Wakefield, VA

Home | Current Version | Previous Version | Text Only | Print | Product List | Glossary Off
Versions: 1 2 3 4 5 6 7 8 9 10 11 12 13 14 15 16 17 18 19 20 21 22 23 24 25 26 27 28 29 30 31 32 33 34 35 36 37 38 39 40 41 42 43 44 45 46 47 48 49 50

000
ASUS41 KAKQ 311815
RWRAKQ

REGIONAL WEATHER ROUNDUP
NATIONAL WEATHER SERVICE WAKEFIELD VA
200 PM EDT FRI JUL 31 2015

Note: "fair" indicates few or no clouds below 12,000 feet with no
significant weather and/or obstructions to visibility. * = Denotes
station may not report precipitation (e.g., rain,snow,etc.),
thunder or fog.

VAZ042-051-052>054-056-311900-
NORTHERN VIRGINIA

CITY           SKY/WX    TMP DP  RH WIND       PRES   REMARKS
WASH NATIONAL  MOSUNNY   91  60  35 VRB6G20   29.93S
DULLES         MOSUNNY   86  58  38 NW9       29.94S
FORT BELVOIR   SUNNY     87  57  36 VRB1      29.92F
QUANTICO       MOSUNNY   91  53  27 W6        29.90S
FREDERICKSBRG* MOSUNNY   88  61  39 SW3       29.94S
STAFFORD*      SUNNY     85  57  37 W5        29.98F
WARRENTON      MOSUNNY   88  62  42 CALM      29.95S
CULPEPER*      MOSUNNY   85  59  41 NW3       29.96S
MANASSAS*      SUNNY     88  59  37 NW5       29.94F
LEESBURG*      PTSUNNY   86  61  42 NW10G16   29.95S
WINCHESTER     MOSUNNY   86  54  32 NW10G16   29.96F
FRONT ROYAL*   FAIR      82  59  44 CALM      29.96S
LURAY*         MOCLDY    86  55  35 NW3       29.98S
$$

VAZ048-049-060>072-079>083-311900-
CENTRAL AND SOUTH CENTRAL VIRGINIA

CITY           SKY/WX    TMP DP  RH WIND       PRES   REMARKS
RICHMOND       MOSUNNY   88  60  38 VRB3      29.95F
CHESTERFIELD*  FAIR      88  55  33 SW5       29.96F
PETERSBURG*    SUNNY     88  65  47 NW6       29.96F
HANOVER        SUNNY     87  60  40 VRB3      29.97F
TAPPAHANNOCK*  SUNNY     86  58  37 CALM      29.95F
QUINTON*       FAIR      85  62  45 N5        29.94F
CHARLOTTSVILLE SUNNY     85  55  35 NW6       29.98S
GORDONSVILLE*  FAIR      84  59  42 CALM      29.97S
ORANGE*        SUNNY     86  57  37 NW5       29.98S
LOUISA*        MOSUNNY   88  57  35 N5        29.96S
BUMPASS*       FAIR      85  58  40 CALM      29.96F
FARMVILLE*     SUNNY     87  56  34 NE6       29.97F
CREWE*         FAIR     N/A N/A N/A CALM      29.97S
FORT PICKETT*  FAIR      87  59  38 NW7       29.97F
CHASE CITY*    FAIR      87  63  44 N6        29.98F
CLARKSVILLE*   FAIR      86  63  45 CALM      29.97F
SOUTH HILL*    MOSUNNY   86  64  48 NW3       30.02F
LAWRENCEVILLE* FAIR      88  63  42 CALM      29.95F
EMPORIA*       SUNNY     86  63  45 CALM      29.96F
$$

VAZ088>098-311900-
SOUTHEAST VIRGINIA

CITY           SKY/WX    TMP DP  RH WIND       PRES   REMARKS
NORFOLK        SUNNY     86  61  42 N15       29.92F
VIRGINIA BEACH MOSUNNY   89  66  46 N12       29.91F
NORFOLK NAVAL  MOSUNNY   86  66  51 N12       29.94F
WEST POINT*    SUNNY     89  57  34 N3        29.95F
SALUDA*        FAIR      85  64  49 N8        29.93F
NEWPORT NEWS   MOSUNNY   86  66  51 VRB7      29.93F
LANGLEY AFB    SUNNY     86  65  50 NE12      29.92F
FORT EUSTIS    SUNNY     87  63  45 NW9       29.91F
WILLIAMSBURG*  SUNNY     93  70  46 CALM      29.94F HX  99
HR EXEC AP*    FAIR      88  66  48 NE6       29.94F
FRANKLIN*      PTSUNNY   89  67  48 N3        29.93F
WAKEFIELD      SUNNY     88  64  44 NE7       29.94F
$$

VAZ020-022-025-037-045-311900-
WEST CENTRAL AND SOUTHWEST VIRGINIA

CITY           SKY/WX    TMP DP  RH WIND       PRES   REMARKS
STAUNTON*      MOSUNNY   86  53  31 W7        30.02S
WAYNESBORO*    FAIR      81  55  41 N7        30.02F
HOT SPRINGS VA MOSUNNY   72  54  52 CALM      30.14S
LYNCHBURG      SUNNY     83  55  38 VRB5      30.02F
DANVILLE       SUNNY     86  61  42 NE3       30.00F
SOUTH BOSTON*  FAIR      86  61  41 E3        29.98F
MARTINSVILLE   SUNNY     87  55  33 N5        30.04F
ROANOKE        MOSUNNY   86  54  33 VRB7      30.04F
BLACKSBURG     SUNNY     80  58  45 CALM      30.11F
DUBLIN*          N/A     80  55  41 N5        30.10F
MARION*        MOSUNNY   79  57  48 W3        30.14F
HILLSVILLE*    MOSUNNY   76  56  50 NW3       30.11F
RICHLANDS*     FAIR      76  55  47 CALM      30.13F
WISE*          SUNNY     79  48  34 NE5       30.15F
ABINGDON*      SUNNY     81  52  36 S3        30.11S
$$

MDZ021>025-VAZ099-100-311900-
SOUTHERN MARYLAND AND THE DELMARVA PENINSULA

CITY           SKY/WX    TMP DP  RH WIND       PRES   REMARKS
PATUXENT RIVER MOSUNNY   86  61  42 NE8       29.92F
BAY BRIDGE APT   N/A     86  55  35 NW3       29.91F
LEONARDTOWN    SUNNY     86  52  30 CALM      29.94F
DOVER          MOSUNNY   87  63  45 VRB2      29.89S
GEORGETOWN     SUNNY     87  56  34 N9        29.91F
EASTON         MOSUNNY   88  61  40 NW7       29.95F
CAMBRIDGE      SUNNY     86  55  35 W5        29.92S
SALISBURY      SUNNY     86  58  38 VRB6      29.90F
OCEAN CITY     SUNNY     86  55  34 E7        29.90F
WALLOPS ISLAND SUNNY     88  61  40 N10       29.91F
ACCOMACK*      SUNNY     86  61  42 NW12      29.91F
$$

NCZ012>017-030>032-311900-
NORTH CENTRAL AND EASTERN NORTH CAROLINA

CITY           SKY/WX    TMP DP  RH WIND       PRES   REMARKS
ROANOKE RAPIDS FAIR      88  64  45 CALM      29.94F
RALEIGH        MOSUNNY   88  63  43 N6        29.96F
ELIZABETH CITY SUNNY     87  65  47 NE14      29.91F
AHOSKIE*       SUNNY     85  69  56 N5        29.93F
EDENTON*         N/A     88  69  54 N8        29.91F
CURRITUCK*     SUNNY     87  61  40 N13       29.92F
KILL DEVIL HLS PTSUNNY   86  73  65 N10       29.89F
MANTEO         PTSUNNY   85  74  71 N13       29.91S
CAPE HATTERAS  MOSUNNY   87  76  69 N9        29.88F HX  97
TARBORO*         N/A     92  68  45 CALM      29.93F HX  95
GOLDSBORO      SUNNY     91  69  49 NE9       29.90F HX  95
WASHINGTON     SUNNY     87  73  62 E5        29.91F
GREENVILLE     MOSUNNY   90  72  55 NE9       29.93F HX  96
NEW BERN       MOSUNNY   89  74  60 N7        29.91F HX  98
WILMINGTON     PTSUNNY   90  76  63 N9        29.90F HX 101
$$

VAZ048-311900-
ELSEWHERE

CITY           SKY/WX    TMP DP  RH WIND       PRES   REMARKS
HARRISBURG PA  MOSUNNY   87  61  41 NW10      29.90S
BALTIMORE      MOSUNNY   89  57  33 N8G16     29.91S
ANNAPOLIS      SUNNY     86  56  35 NW7       29.90F
ANDREWS AFB    MOSUNNY   88  58  36 VRB2      29.92S
PHILADELPHIA   MOSUNNY   88  54  31 NW8G17    29.88F
HENDERSON NC   SUNNY     86  56  36 E6        29.98F
GREENSBORO     MOSUNNY   86  59  39 VRB5      30.00F
ROCKY MOUNT    SUNNY     93  64  38 VRB7      29.93F
$$

VAZ100-311900-
MARINE

STATION/POSITION TIME  TEMP    WIND        PRES    WAVE   SWELL
                       AIR SEA DIR/SP/G            HT/PER HT/PER
                 (UTC) (F)     (DEG/KT/KT) (MB)    (FT/S) (FT/S)
BRANDYWINE LGT   1700   80 76  330/  5/  5 1013.0F
CAPE MAY NJ      1700   83 79  310/ 10/ 13 1012.3F
LEWES DE         1700   79 74   10/  4/  4 1012.7F
15NM E FENWICK I 1750   80 80  310/  6/  8 1012.8F   3/ 6   2/ 6
OCEAN-CITY-INLET 1700   83 72   80/  6/ 10 1012.0F
WACHAPREAGUE VA  1706   85 86   20/  6/ 10 1013.3F
THOMAS POINT MD  1700   83 81   CALM  /  1 1013.5
GOOSES REEF MD   1800   83 84  150/  4/  6 1014.2F
COVE POINT MD    1700   83      20/  4/  6 1014.2F
SOLOMONS ISLAND  1700      83                N/A
BISHOPS HEAD MD  1700   85 84   30/  7/ 10 1012.4F
PINEY POINT MD   1700          310/  7/  8   N/A
POTOMAC MD       1800   83 83  290/  4/  6 1012.3F   0
CAMBRIDGE MD     1700   83 83  310/  6/  7 1012.4F
LEWISETTA VA     1700   83 83  310/  6/  7 1013.4F
RAPPAHANNOCK LGT 1700          350/  8/  9 1014.2R
STINGRAY PT      1700   82 83   20/ 10/ 12 1014.0R   1/ 3
YORK RVR RNG VA  1700   83      30/ 10/ 11 1013.3R
YORKTOWN VA      1700   84 83   60/  3/  7 1013.5R
JAMESTOWN VA     1800   84 87  310/  6/  8   N/A
DOMINION TERM VA 1700   85      30/  9/ 14 1013.8R
KIPTOPEKE VA     1700      82  340/ 12/ 14   N/A
CHES BAY BRIDGE  1700   82 79  350/ 13/ 15 1013.2R
CAPE HENRY VA    1700   81      30/  8/ 10   N/A
CHESAPEAKE LGHT  1700   81      20/ 16/ 17 1013.8R
WILLOUBY STN VA  1700   82      40/ 12/ 14 1014.8R
1ST LANDING BUOY 1800      80              1012.8F   2/ 3
CAPE CHARLES BUO 1726      81                N/A     3/ 8   2/ 8
OFFSHORE WE BUOY 1711      82                N/A     4/ 8   2/ 8
64NM E OF VA BCH 1750   81 82   20/ 16/ 17 1011.8F   3/ 9   3/ 9
DUCK PIER NC     1700   75 67  340/ 11/ 11 1012.1S
44100 DUCK FRF   1724      80                N/A     3/10   2/11
44056 DUCK FRF   1711      79                N/A     3/ 6
OREGON INLET NC  1700   82 83  360/ 12/ 17 1012.5R
HATTERAS NC      1700   83 82   10/  7/ 10 1012.3R
DIAMOND SHLS NC  1750   82 86   10/ 10/ 12 1011.9F   4/ 9   3/ 9
CAPE LOOKOUT NC  1800   87     280/  7/  9 1011.6F
$$


USA.gov is the U.S. government's official web portal to all federal, state and local government web resources and services.